GLO1972 SBCF-SBPS

Flight info

Callsign GLO1972
Flight time 0h 53m
Altitude 37000
Route KADOR DCT POSMU DCT OSUNO
Aircraft B737/M-SDFGIKRWY/LB1

Departure

Time 2026-05-03 23:26
Airport Tancredo Neves International Airport (SBCF)

Arrival

Time 2026-05-04 00:19
Airport Porto Seguro International Airport (SBPS)
Time Latitude Longitude Altitude Speed Heading
2026-05-03 23:03 -19.62922 -43.96952 2752 ft 0 kts 229°
2026-05-03 23:18 -19.62912 -43.96940 2752 ft 2 kts 229°
2026-05-03 23:18 -19.62901 -43.96927 2752 ft 2 kts 229°
2026-05-03 23:19 -19.62891 -43.96913 2752 ft 2 kts 296°
2026-05-03 23:19 -19.62901 -43.96901 2752 ft 1 kts 319°
2026-05-03 23:19 -19.62902 -43.96900 2752 ft 0 kts 319°
2026-05-03 23:21 -19.62871 -43.96929 2754 ft 12 kts 319°
2026-05-03 23:22 -19.62829 -43.97090 2752 ft 14 kts 228°
2026-05-03 23:22 -19.62809 -43.97168 2754 ft 13 kts 319°
2026-05-03 23:22 -19.62732 -43.97240 2753 ft 18 kts 319°
2026-05-03 23:23 -19.62627 -43.97337 2754 ft 20 kts 319°
2026-05-03 23:23 -19.62525 -43.97432 2753 ft 19 kts 319°
2026-05-03 23:23 -19.62425 -43.97524 2752 ft 19 kts 319°
2026-05-03 23:23 -19.62328 -43.97613 2752 ft 18 kts 319°
2026-05-03 23:24 -19.62241 -43.97705 2752 ft 17 kts 294°
2026-05-03 23:24 -19.62310 -43.97785 2752 ft 17 kts 189°
2026-05-03 23:24 -19.62396 -43.97778 2750 ft 10 kts 139°
2026-05-03 23:24 -19.62404 -43.97770 2750 ft 0 kts 138°
2026-05-03 23:25 -19.62422 -43.97753 2751 ft 22 kts 138°
2026-05-03 23:25 -19.62734 -43.97465 2751 ft 95 kts 139°
2026-05-03 23:25 -19.63397 -43.96850 2752 ft 156 kts 139°
2026-05-03 23:26 -19.64310 -43.95995 3005 ft 186 kts 138°
2026-05-03 23:26 -19.65286 -43.95097 3913 ft 184 kts 138°
2026-05-03 23:26 -19.66261 -43.94197 4709 ft 191 kts 133°
2026-05-03 23:26 -19.66963 -43.92934 5073 ft 216 kts 101°
2026-05-03 23:27 -19.66919 -43.91261 5320 ft 248 kts 81°
2026-05-03 23:27 -19.66470 -43.89396 5815 ft 271 kts 76°
2026-05-03 23:27 -19.65917 -43.87400 6271 ft 296 kts 76°
2026-05-03 23:27 -19.65311 -43.85200 6515 ft 324 kts 75°
2026-05-03 23:28 -19.64673 -43.82862 7205 ft 334 kts 75°
2026-05-03 23:28 -19.64035 -43.80481 8044 ft 337 kts 76°
2026-05-03 23:28 -19.63402 -43.78069 8825 ft 342 kts 75°
2026-05-03 23:28 -19.62765 -43.75628 9619 ft 345 kts 75°
2026-05-03 23:29 -19.62106 -43.73188 10384 ft 351 kts 71°
2026-05-03 23:29 -19.60906 -43.70923 11147 ft 357 kts 53°
2026-05-03 23:29 -19.59351 -43.68907 11931 ft 360 kts 50°
2026-05-03 23:29 -19.57718 -43.66865 12658 ft 365 kts 50°
2026-05-03 23:30 -19.56065 -43.64792 13358 ft 371 kts 50°
2026-05-03 23:30 -19.54400 -43.62674 14051 ft 376 kts 51°
2026-05-03 23:30 -19.52723 -43.60522 14672 ft 383 kts 51°
2026-05-03 23:30 -19.51011 -43.58314 15271 ft 390 kts 51°
2026-05-03 23:31 -19.49326 -43.56042 15958 ft 394 kts 52°
2026-05-03 23:31 -19.47654 -43.53723 16634 ft 398 kts 52°
2026-05-03 23:31 -19.45985 -43.51396 17201 ft 404 kts 52°
2026-05-03 23:31 -19.44271 -43.49009 17765 ft 410 kts 52°
2026-05-03 23:32 -19.42529 -43.46596 18335 ft 415 kts 51°
2026-05-03 23:32 -19.40766 -43.44160 18900 ft 419 kts 51°
2026-05-03 23:32 -19.38984 -43.41704 19445 ft 423 kts 51°
2026-05-03 23:32 -19.37180 -43.39219 19962 ft 428 kts 51°
2026-05-03 23:33 -19.35355 -43.36710 20467 ft 432 kts 51°
2026-05-03 23:33 -19.33538 -43.34211 20933 ft 436 kts 51°
2026-05-03 23:33 -19.31682 -43.31656 21428 ft 440 kts 51°
2026-05-03 23:33 -19.29810 -43.29077 21880 ft 444 kts 51°
2026-05-03 23:34 -19.27917 -43.26467 22304 ft 448 kts 51°
2026-05-03 23:34 -19.26013 -43.23843 22739 ft 451 kts 51°
2026-05-03 23:34 -19.24092 -43.21196 23160 ft 455 kts 51°
2026-05-03 23:34 -19.22163 -43.18536 23564 ft 457 kts 51°
2026-05-03 23:35 -19.20217 -43.15856 23938 ft 461 kts 51°
2026-05-03 23:35 -19.18283 -43.13197 24299 ft 464 kts 51°
2026-05-03 23:35 -19.16310 -43.10484 24672 ft 466 kts 51°
2026-05-03 23:35 -19.14328 -43.07760 25052 ft 468 kts 50°
2026-05-03 23:36 -19.12336 -43.05022 25407 ft 471 kts 50°
2026-05-03 23:36 -19.10330 -43.02268 25712 ft 474 kts 50°
2026-05-03 23:36 -19.08313 -42.99498 26049 ft 477 kts 50°
2026-05-03 23:36 -19.06288 -42.96720 26418 ft 477 kts 50°
2026-05-03 23:37 -19.04263 -42.93943 26881 ft 476 kts 50°
2026-05-03 23:37 -19.02246 -42.91175 27352 ft 474 kts 50°
2026-05-03 23:37 -19.00264 -42.88458 27868 ft 472 kts 50°
2026-05-03 23:37 -18.98261 -42.85715 28411 ft 470 kts 50°
2026-05-03 23:38 -18.96266 -42.82982 28916 ft 470 kts 50°
2026-05-03 23:38 -18.94274 -42.80255 29416 ft 469 kts 50°
2026-05-03 23:38 -18.92313 -42.77504 29905 ft 470 kts 54°
2026-05-03 23:38 -18.90639 -42.74534 30417 ft 470 kts 59°
2026-05-03 23:39 -18.89120 -42.71475 30863 ft 472 kts 61°
2026-05-03 23:39 -18.87623 -42.68350 30938 ft 482 kts 61°
2026-05-03 23:39 -18.86095 -42.65182 31123 ft 487 kts 61°
2026-05-03 23:39 -18.84553 -42.62051 31513 ft 487 kts 60°
2026-05-03 23:40 -18.82970 -42.58893 31881 ft 488 kts 59°
2026-05-03 23:40 -18.81364 -42.55729 32156 ft 490 kts 59°
2026-05-03 23:40 -18.79744 -42.52551 32518 ft 490 kts 59°
2026-05-03 23:40 -18.78132 -42.49387 32950 ft 489 kts 59°
2026-05-03 23:41 -18.76524 -42.46228 33351 ft 489 kts 59°
2026-05-03 23:41 -18.74913 -42.43069 33726 ft 489 kts 59°
2026-05-03 23:41 -18.73311 -42.39959 34075 ft 489 kts 59°
2026-05-03 23:41 -18.71680 -42.36814 34473 ft 487 kts 59°
2026-05-03 23:42 -18.70058 -42.33690 34911 ft 485 kts 59°
2026-05-03 23:42 -18.68438 -42.30574 35259 ft 484 kts 59°
2026-05-03 23:42 -18.66820 -42.27456 35556 ft 485 kts 59°
2026-05-03 23:42 -18.65203 -42.24341 35885 ft 484 kts 58°
2026-05-03 23:43 -18.63588 -42.21231 36249 ft 482 kts 58°
2026-05-03 23:43 -18.61981 -42.18135 36591 ft 480 kts 58°
2026-05-03 23:43 -18.60379 -42.15051 36899 ft 479 kts 58°
2026-05-03 23:43 -18.58806 -42.12023 37130 ft 479 kts 58°
2026-05-03 23:44 -18.55568 -42.05804 37109 ft 488 kts 58°
2026-05-03 23:44 -18.52310 -41.99545 37102 ft 486 kts 58°
2026-05-03 23:45 -18.49072 -41.93322 37092 ft 483 kts 58°
2026-05-03 23:45 -18.45845 -41.87132 37098 ft 481 kts 58°
2026-05-03 23:46 -18.42646 -41.81008 37109 ft 479 kts 58°
2026-05-03 23:46 -18.39439 -41.74870 37098 ft 478 kts 58°
2026-05-03 23:47 -18.36231 -41.68737 37102 ft 478 kts 58°
2026-05-03 23:47 -18.33017 -41.62600 37106 ft 479 kts 58°
2026-05-03 23:48 -18.29809 -41.56482 37106 ft 482 kts 58°
2026-05-03 23:48 -18.26564 -41.50297 37106 ft 484 kts 58°
2026-05-03 23:49 -18.23304 -41.44095 37109 ft 486 kts 58°
2026-05-03 23:49 -18.20028 -41.37863 37103 ft 487 kts 58°
2026-05-03 23:50 -18.16765 -41.31662 37104 ft 488 kts 58°
2026-05-03 23:50 -18.13478 -41.25421 37101 ft 488 kts 58°
2026-05-03 23:51 -18.10193 -41.19186 37108 ft 487 kts 58°
2026-05-03 23:51 -18.06909 -41.12961 37093 ft 486 kts 58°
2026-05-03 23:52 -18.03632 -41.06756 37093 ft 485 kts 58°
2026-05-03 23:52 -18.00380 -41.00610 37100 ft 484 kts 58°
2026-05-03 23:53 -17.97116 -40.94443 37109 ft 483 kts 58°
2026-05-03 23:53 -17.93850 -40.88278 37094 ft 483 kts 58°
2026-05-03 23:54 -17.90589 -40.82128 37106 ft 482 kts 58°
2026-05-03 23:54 -17.87352 -40.76033 37097 ft 480 kts 58°
2026-05-03 23:55 -17.84101 -40.69914 37097 ft 480 kts 58°
2026-05-03 23:55 -17.80849 -40.63798 37095 ft 480 kts 58°
2026-05-03 23:56 -17.77592 -40.57680 37102 ft 480 kts 58°
2026-05-03 23:56 -17.74351 -40.51598 37099 ft 481 kts 58°
2026-05-03 23:57 -17.71083 -40.45470 37108 ft 482 kts 58°
2026-05-03 23:57 -17.67798 -40.39318 36660 ft 489 kts 58°
2026-05-03 23:58 -17.66132 -40.36200 36065 ft 489 kts 58°
2026-05-03 23:58 -17.64471 -40.33090 35313 ft 489 kts 58°
2026-05-03 23:58 -17.62807 -40.29979 34576 ft 490 kts 58°
2026-05-03 23:58 -17.61137 -40.26856 33770 ft 492 kts 58°
2026-05-03 23:59 -17.59486 -40.23772 32946 ft 493 kts 58°
2026-05-03 23:59 -17.57804 -40.20629 32069 ft 495 kts 59°
2026-05-03 23:59 -17.56120 -40.17486 31142 ft 496 kts 59°
2026-05-03 23:59 -17.54424 -40.14324 30178 ft 498 kts 59°
2026-05-04 00:00 -17.52729 -40.11162 29304 ft 497 kts 59°
2026-05-04 00:00 -17.51047 -40.08026 28599 ft 490 kts 59°
2026-05-04 00:00 -17.49385 -40.04926 27874 ft 485 kts 59°
2026-05-04 00:00 -17.47763 -40.01905 27174 ft 480 kts 59°
2026-05-04 00:01 -17.46136 -39.98877 26467 ft 474 kts 59°
2026-05-04 00:01 -17.44503 -39.95897 25755 ft 469 kts 55°
2026-05-04 00:01 -17.42401 -39.93340 25062 ft 461 kts 39°
2026-05-04 00:01 -17.39777 -39.91495 24486 ft 450 kts 26°
2026-05-04 00:02 -17.37012 -39.89990 23800 ft 445 kts 25°
2026-05-04 00:02 -17.34254 -39.88553 23109 ft 441 kts 25°
2026-05-04 00:02 -17.31515 -39.87130 22417 ft 437 kts 25°
2026-05-04 00:02 -17.28811 -39.85708 21729 ft 434 kts 26°
2026-05-04 00:03 -17.26170 -39.84299 21047 ft 430 kts 26°
2026-05-04 00:03 -17.23525 -39.82873 20359 ft 426 kts 26°
2026-05-04 00:03 -17.20906 -39.81454 19677 ft 422 kts 27°
2026-05-04 00:03 -17.18317 -39.80049 18997 ft 417 kts 27°
2026-05-04 00:04 -17.15751 -39.78658 18317 ft 414 kts 27°
2026-05-04 00:04 -17.13207 -39.77278 17641 ft 410 kts 27°
2026-05-04 00:04 -17.10690 -39.75914 16967 ft 406 kts 27°
2026-05-04 00:04 -17.08227 -39.74579 16318 ft 402 kts 27°
2026-05-04 00:05 -17.05759 -39.73244 15660 ft 398 kts 27°
2026-05-04 00:05 -17.03313 -39.71920 15009 ft 394 kts 28°
2026-05-04 00:05 -17.00923 -39.70568 14495 ft 386 kts 30°
2026-05-04 00:05 -16.98631 -39.69147 13942 ft 380 kts 32°
2026-05-04 00:06 -16.96390 -39.67713 13334 ft 376 kts 32°
2026-05-04 00:06 -16.94166 -39.66286 12706 ft 373 kts 32°
2026-05-04 00:06 -16.91963 -39.64881 12083 ft 370 kts 32°
2026-05-04 00:06 -16.89775 -39.63494 11454 ft 366 kts 32°
2026-05-04 00:07 -16.87627 -39.62139 10835 ft 364 kts 32°
2026-05-04 00:07 -16.85490 -39.60799 10599 ft 351 kts 32°
2026-05-04 00:07 -16.83443 -39.59515 10412 ft 337 kts 33°
2026-05-04 00:07 -16.81478 -39.58282 10268 ft 323 kts 33°
2026-05-04 00:08 -16.79592 -39.57098 10132 ft 310 kts 33°
2026-05-04 00:08 -16.77769 -39.55955 9841 ft 304 kts 33°
2026-05-04 00:08 -16.75958 -39.54818 9459 ft 303 kts 34°
2026-05-04 00:08 -16.74183 -39.53703 9069 ft 301 kts 34°
2026-05-04 00:09 -16.72462 -39.52483 8686 ft 299 kts 39°
2026-05-04 00:09 -16.70813 -39.51178 8290 ft 297 kts 41°
2026-05-04 00:09 -16.69184 -39.49858 7905 ft 296 kts 41°
2026-05-04 00:09 -16.67562 -39.48547 7507 ft 294 kts 41°
2026-05-04 00:10 -16.65945 -39.47249 7116 ft 293 kts 41°
2026-05-04 00:10 -16.64333 -39.45962 6852 ft 288 kts 41°
2026-05-04 00:10 -16.62769 -39.44723 6706 ft 278 kts 41°
2026-05-04 00:10 -16.61254 -39.43524 6580 ft 269 kts 41°
2026-05-04 00:11 -16.59805 -39.42380 6460 ft 261 kts 41°
2026-05-04 00:11 -16.58381 -39.41250 6351 ft 253 kts 41°
2026-05-04 00:11 -16.57005 -39.40161 6242 ft 244 kts 41°
2026-05-04 00:11 -16.55658 -39.39096 6003 ft 242 kts 41°
2026-05-04 00:12 -16.54324 -39.38041 5737 ft 241 kts 41°
2026-05-04 00:12 -16.52992 -39.36988 5476 ft 239 kts 41°
2026-05-04 00:12 -16.51699 -39.35918 5202 ft 234 kts 51°
2026-05-04 00:12 -16.50937 -39.34510 4965 ft 215 kts 76°
2026-05-04 00:13 -16.50525 -39.33064 4680 ft 203 kts 79°
2026-05-04 00:13 -16.50172 -39.31701 4441 ft 193 kts 79°
2026-05-04 00:13 -16.49821 -39.30343 4239 ft 195 kts 79°
2026-05-04 00:13 -16.49464 -39.28991 3940 ft 193 kts 79°
2026-05-04 00:14 -16.49112 -39.27672 3716 ft 186 kts 79°
2026-05-04 00:14 -16.48769 -39.26390 3467 ft 181 kts 79°
2026-05-04 00:14 -16.48439 -39.25148 3219 ft 175 kts 78°
2026-05-04 00:14 -16.48118 -39.23950 3012 ft 167 kts 78°
2026-05-04 00:15 -16.47818 -39.22830 2835 ft 163 kts 79°
2026-05-04 00:15 -16.47515 -39.21702 2633 ft 156 kts 78°
2026-05-04 00:15 -16.47226 -39.20631 2448 ft 156 kts 78°
2026-05-04 00:15 -16.46931 -39.19533 2244 ft 158 kts 78°
2026-05-04 00:16 -16.46644 -39.18462 2079 ft 149 kts 77°
2026-05-04 00:16 -16.46372 -39.17456 1836 ft 140 kts 77°
2026-05-04 00:16 -16.46111 -39.16488 1651 ft 139 kts 77°
2026-05-04 00:16 -16.45849 -39.15510 1520 ft 143 kts 76°
2026-05-04 00:17 -16.45578 -39.14504 1319 ft 145 kts 76°
2026-05-04 00:17 -16.45307 -39.13499 1112 ft 144 kts 76°
2026-05-04 00:17 -16.45038 -39.12494 913 ft 144 kts 76°
2026-05-04 00:17 -16.44771 -39.11505 726 ft 144 kts 76°
2026-05-04 00:18 -16.44495 -39.10504 533 ft 144 kts 76°
2026-05-04 00:18 -16.44225 -39.09502 304 ft 143 kts 75°
2026-05-04 00:18 -16.43969 -39.08527 159 ft 133 kts 74°
2026-05-04 00:18 -16.43808 -39.07932 159 ft 59 kts 75°
2026-05-04 00:19 -16.43708 -39.07553 161 ft 51 kts 74°
2026-05-04 00:19 -16.43637 -39.07283 160 ft 26 kts 82°
2026-05-04 00:19 -16.43620 -39.07205 159 ft 7 kts 330°
2026-05-04 00:19 -16.43627 -39.07254 160 ft 11 kts 254°
2026-05-04 00:20 -16.43660 -39.07378 161 ft 25 kts 255°
2026-05-04 00:20 -16.43706 -39.07549 161 ft 24 kts 254°
2026-05-04 00:20 -16.43749 -39.07710 161 ft 23 kts 255°
2026-05-04 00:20 -16.43792 -39.07865 159 ft 22 kts 254°
2026-05-04 00:21 -16.43831 -39.08014 158 ft 19 kts 254°
2026-05-04 00:21 -16.43859 -39.08118 159 ft 10 kts 254°
2026-05-04 00:21 -16.43877 -39.08186 159 ft 10 kts 254°
2026-05-04 00:21 -16.43895 -39.08252 158 ft 10 kts 254°
2026-05-04 00:22 -16.43934 -39.08316 158 ft 12 kts 190°
2026-05-04 00:22 -16.44014 -39.08297 159 ft 12 kts 164°
2026-05-04 00:22 -16.44056 -39.08259 159 ft 7 kts 80°
2026-05-04 00:22 -16.44049 -39.08229 159 ft 0 kts 75°
2026-05-04 00:24 -16.44046 -39.08219 159 ft 3 kts 75°
2026-05-04 00:24 -16.44039 -39.08190 159 ft 3 kts 74°
2026-05-04 00:24 -16.44030 -39.08159 159 ft 3 kts 73°
2026-05-04 00:24 -16.44028 -39.08150 159 ft 0 kts 75°
2026-05-04 00:25 -16.44035 -39.08140 159 ft 3 kts 145°
2026-05-04 00:25 -16.44058 -39.08133 159 ft 4 kts 163°
2026-05-04 00:25 -16.44074 -39.08128 159 ft 0 kts 164°